Regional Weather Roundup
Issued by NWS San Angelo, TX

Home | Current Version | Previous Version | Text Only | Print | Product List | Glossary On
Versions: 1 2 3 4 5 6 7 8 9 10 11 12 13 14 15 16 17 18 19 20 21 22 23 24 25 26 27 28 29 30 31 32 33 34 35 36 37 38 39 40 41 42 43 44 45 46 47 48 49 50
000
ASUS44 KSJT 182110
RWRSJT
WEST CENTRAL TEXAS REGIONAL WEATHER ROUNDUP
NATIONAL WEATHER SERVICE SAN ANGELO TX
400 PM CDT FRI APR 18 2014

NOTE: "FAIR" INDICATES FEW OR NO CLOUDS BELOW 12,000 FEET WITH NO
SIGNIFICANT WEATHER AND/OR OBSTRUCTIONS TO VISIBILITY.

TXZ049-054-064>066-071>073-076>078-098-099-113-114-127-128-139-140-
154-155-168>170-182200
...LOCATIONS ACROSS WEST CENTRAL TEXAS...

CITY           SKY/WX    TMP DP  RH WIND       PRES   REMARKS
SAN ANGELO     PTSUNNY   77  48  35 E9        30.13F
ABILENE        MOSUNNY   72  47  40 S5        30.16F
DYESS AFB      SUNNY     73  48  41 E8        30.15F
JUNCTION       MOSUNNY   78  46  32 S6        30.12F
SWEETWATER     SUNNY     72  45  37 CALM      30.19F
BROWNWOOD      PTSUNNY   73  50  43 SE10      30.15F
COLEMAN        PTCLDY    74  45  34 CALM      30.15F
SONORA         MOSUNNY   77  46  33 S8        30.14F
OZONA          FAIR      77  45  31 E9G16     30.15F
BRADY          MOSUNNY   73  46  38 VRB6      30.14F
$$

TEXAS PANHANDLE/OKLAHOMA PANHANDLE

CITY           SKY/WX    TMP DP  RH WIND       PRES   REMARKS
AMARILLO       SUNNY     72  42  34 S18G30    30.11F
BORGER         SUNNY     74  41  30 S14G22    30.08F
CANADIAN       SUNNY     68  44  41 S17G23    30.11F
DALHART        SUNNY     75  43  31 S20G33    30.05F
DUMAS          CLEAR     71  42  35 S23G30    30.07F
GUYMON         NOT AVBL
HEREFORD       CLEAR     73  42  32 S21G26    30.12F
PAMPA          CLEAR     69  41  36 S15G25    30.12F
PERRYTON       SUNNY     68  43  39 S20G26    30.09F
$$

SOUTHERN PANHANDLE/SOUTH PLAINS/ROLLING PLAINS

CITY           SKY/WX    TMP DP  RH WIND       PRES   REMARKS
LUBBOCK        CLOUDY    70  47  43 S16G22    30.14F
SNYDER         SUNNY     69  49  48 NE6       30.17F
CHILDRESS      MOSUNNY   67  48  50 S13G22    30.17F
SEMINOLE       MOCLDY    71  47  43 S12G20    30.15F
$$

PERMIAN BASIN

CITY           SKY/WX    TMP DP  RH WIND       PRES   REMARKS
MIDLAND        PTSUNNY   75  47  36 SE17G23   30.12F
ODESSA         PTSUNNY   76  47  35 SE17      30.12F
WINK           CLOUDY    77  48  35 E16       30.07F
$$

FAR WEST/SOUTHWEST MOUNTAINS/TRANS PECOS

CITY           SKY/WX    TMP DP  RH WIND       PRES   REMARKS
ALPINE         PTCLDY    77  38  24 S10       30.17F
DRYDEN           N/A     75  55  49 E13G22    30.09F
EL PASO        CLOUDY    81  33  17 SE12G24   30.01F
FORT STOCKTON  PTSUNNY   74  48  39 SE18G28   30.09F
GUADALUPE PASS MOSUNNY   66  45  46 E17G32    30.16F
MARFA          MOSUNNY   75  39  27 SE8G18    30.16F
PECOS          MOCLDY    81  46  30 E18G26    30.07S
$$

DALLAS/FORT WORTH METROPLEX

CITY           SKY/WX    TMP DP  RH WIND       PRES   REMARKS
DFW AIRPORT    MOSUNNY   75  48  38 VRB5      30.14F
FTW MEACHAM    MOSUNNY   74  50  42 VRB3      30.15F
DAL-EXECUTIVE  SUNNY     77  46  33 E8        30.14F
GRAND PRAIRIE  SUNNY     75  46  35 E3        30.17F
ADDISON        NOT AVBL
MESQUITE       CLEAR     73  46  38 MISG      30.15F
LANCASTER      CLEAR     74  46  37 CALM      30.15F
$$

NORTH CENTRAL TEXAS

CITY           SKY/WX    TMP DP  RH WIND       PRES   REMARKS
SHRMAN/DENISON CLEAR     73  40  30 CALM      30.17F
GAINESVILLE    SUNNY     73  46  37 NE5       30.18F
BRIDGEPORT     MOCLDY    70  49  46 CALM      30.18F
DENTON         SUNNY     75  48  38 N6        30.15F
WAXAHACHIE     PTCLDY    73  48  41 N6        30.16F
GRANBURY       CLOUDY    76  51  41 E7        30.17F
$$

WESTERN NORTH TEXAS

CITY           SKY/WX    TMP DP  RH WIND       PRES   REMARKS
WICHITA FALLS  MOSUNNY   71  51  49 S7        30.15F
VERNON         CLOUDY    66  51  58 SW6       30.19F
BRECKENRIDGE   CLOUDY    70  49  47 CALM      30.17F
COMANCHE       MOSUNNY   71  52  49 S3        30.17F
$$

CENTRAL AND SOUTH CENTRAL TEXAS

CITY           SKY/WX    TMP DP  RH WIND       PRES   REMARKS
AUSTIN/BERGSTM MOSUNNY   76  56  49 VRB3      30.12F
WACO           MOSUNNY   71  52  50 CALM      30.15F
HILLSBORO      MOCLDY    74  53  46 NE6       30.15F
TEMPLE         MOSUNNY   75  54  46 NE8       30.15F
KILLEEN-GRAY   PTSUNNY   73  52  46 NE8       30.14F
FORT HOOD      NOT AVBL
GEORGETOWN     PTSUNNY   73  54  49 VRB6      30.14F
LAGO VISTA     CLOUDY    73  52  48 NE5       30.15F
SAN MARCOS     PTSUNNY   75  54  46 E7        30.14F
NEW BRAUNFELS  CLOUDY    78  56  46 E10       30.11F
RANDOLPH AFB   MOSUNNY   78  54  43 E8        30.11F
SAN ANTONIO    PTSUNNY   79  54  41 NE8       30.12F
STINSON        PTSUNNY   80  55  42 VRB6      30.10F
PLEASANTON     NOT AVBL
LA GRANGE      SUNNY     76  58  54 E3        30.11F
GIDDINGS       PTCLDY    74  55  51 NE3       30.16F
$$

EAST TEXAS

CITY           SKY/WX    TMP DP  RH WIND       PRES   REMARKS
PARIS          SUNNY     73  46  38 E6        30.16F
CLARKSVILLE    CLEAR     74  43  32 CALM      30.15F
TYLER          SUNNY     75  45  34 E8        30.13F
LONGVIEW       MOSUNNY   74  49  41 NE9G16    30.12F
PALESTINE      CLEAR     77  45  32 CALM      30.15F
NACOGDOCHES    MOSUNNY   75  52  43 N8        30.13F
$$

TEXAS HILL COUNTRY AND EDWARDS PLATEAU

CITY           SKY/WX    TMP DP  RH WIND       PRES   REMARKS
LLANO          CLEAR     81  48  32 E8        30.15F
HORSESHOE BAY  CLOUDY    78  52  40 E6        30.12F
KERRVILLE      MOSUNNY   76  47  35 CALM      30.13F
FREDERICKSBRG  MOSUNNY   74  48  40 E5        30.13F
ROCKSPRINGS    MOCLDY    75  48  38 S7        30.16F
HONDO          PTSUNNY   81  52  36 SE12      30.13F
UVALDE         CLOUDY    78  52  40 SE5       30.12F
DEL RIO        PTSUNNY   77  53  43 E10       30.10F
$$

SOUTHEAST TEXAS

CITY           SKY/WX    TMP DP  RH WIND       PRES   REMARKS
COLLEGE STN    MOSUNNY   76  54  46 NE8       30.12F
CALDWELL       PTCLDY    73  54  49 E7        30.15F
CROCKETT       PTCLDY    77  55  47 NE9       30.14F
BRENHAM        SUNNY     75  55  48 NE6       30.13F
HUNTSVILLE     MOSUNNY   77  54  44 NE5       30.11F
CONROE         MOSUNNY   78  53  41 N8        30.11F
HOUSTON BUSH   MOSUNNY   78  53  41 VRB6      30.10F
HOUSTON HOBBY  MOSUNNY   78  52  40 NE12      30.09F
PERLAND        SUNNY     79  50  36 N9        30.10F
WHARTON        MOCLDY    76  56  49 N6        30.11F
$$

THE UPPER TEXAS COAST

CITY           SKY/WX    TMP DP  RH WIND       PRES   REMARKS
ORANGE         MOCLDY    74  55  49 N7        30.10F
PORT ARTHUR    MOSUNNY   76  55  48 N3        30.09F
GALVESTON      SUNNY     76  56  49 N13       30.11F
ANGLETON       SUNNY     79  52  38 N12       30.10
BAY CITY       MOCLDY    78  57  48 N5        30.10F
$$

TEXAS COASTAL BEND, RIO GRANDE PLAINS DEEP SOUTH TEXAS

CITY           SKY/WX    TMP DP  RH WIND       PRES   REMARKS
VICTORIA       SUNNY     80  56  43 NE9       30.11F
BEEVILLE       MOCLDY    81  54  38 E3        30.08F
ROCKPORT       MOSUNNY   76  60  57 SE14      30.09F
PORT ARANSAS   CLEAR     71  60  69 SE12      30.11F
PORT LAVACA    PTCLDY    78  58  50 NE10G16   30.10F
CORPUS CHRISTI MOSUNNY   79  56  45 E14       30.10F
KINGSVILLE NAS CLOUDY    80  61  52 E14       30.09F
COTULLA        PTSUNNY   80  53  39 MISG      30.09F
LAREDO         CLOUDY    81  58  45 E6        30.11F
BROWNSVILLE    CLOUDY    75  62  64 NE12      30.11F
PORT ISABEL    MOSUNNY   75  64  68 E14       30.11F
HEBBRONVILLE   PTCLDY    79  57  47 NE8       30.10F
MCALLEN        CLOUDY    74  63  68 E8        30.11F
WESLACO        CLOUDY    73  62  68 E6        30.11F
FALFURRIAS     CLOUDY    75  58  54 CALM      30.09F
EDINBURG       CLOUDY    75  62  63 E7        30.12F
$$



USA.gov is the U.S. government's official web portal to all federal, state and local government web resources and services.